NOAA 16 DEB, 42386

Orbit data source: Space-Track

NOAA 16 DEB, 42386 is space debris in SSO originally from a launch on Thu, 21 Sep 2000 UTC launched from the Air Force Western Test Range (AFWTR). Debris objects in space refer to the collection of defunct objects orbiting the Earth. Examples of debris include non-operational satellites, rocket bodies, and fragments generated from explosions, collisions, or faulty payload assembly.

Loading next visibility...
Identifier
42386, 2000-055SE
Orbit
SSO
Country
Flag of USUS
Related business
Manufacturer
Unknown
Mission
Spacecraft
Bus & Motor
Unknown
Mass
Unknown
Launch date (UTC)
2000-09-21 (25 years ago)
Launch vehicle
Unknown
Launch site
Air Force Western Test Range (AFWTR)
Object type
Payload
Rocket body
Debris
Shape & HBR
Unknown shape, 0.1 m
Radar Cross Section
Small (<0.1 m²)

Expand to show TLE details & history
Last TLE update: 1 week ago

TLE from 1 week ago
0 NOAA 16 DEB
1 42386U 00055SE  25279.21913323  .00005611  00000-0  20597-2 0  9990
2 42386  98.6952   6.9434 0021086 165.4771 194.7023 14.33009332498935
Epoch: 2025-10-06T05:15Z
TLE epoch observation values (Epoch: 2025-10-06T05:15:33.111Z)
Latitude
Longitude
-87.07009°
Altitude
799.23 km
Speed
7.446 km/s
True Right ascension
00h 27m 46s
True Declination
0° 00' 00"
Sunlit
Object was in full shadow at epoch
Visualization orbit readout
Latitude
Unknown
Longitude
Unknown
Altitude
Unknown
Speed
Unknown
Apparent Right ascension
Unknown
Apparent Declination
Unknown
Sunlit
N/A
Visualization observer readout
Local Sidereal Time
14:06:28
Azimuth
Unknown
Elevation
Unknown
Doppler factor
Unknown
Orbital elements
Apogee altitude
793.921 km
Perigee altitude
763.739 km
Semi-major axis
7,156.967 km
Eccentricity
0.00211
Inclination
98.6952°
RAAN
6.9434°
Arg. of periapsis
165.4771°
True anomaly
194.64113°
Mean anomaly
194.7023°
Eccentric anomaly
194.6717°
Mean motion
3.58467 °/min
Orbital period
100.43 mins
BSTAR
0.0020597
Loading maneuver chart data...
Computing Atmospheric mass density...

Documentation

Showing up to 5 results
|